Regional Weather Roundup
Issued by NWS

Home | Current Version | Previous Version | Graphics & Text | Print | Product List | Glossary On
Versions: 1 2 3 4 5 6 7 8 9 10 11 12 13 14 15 16 17 18 19 20 21 22 23 24 25 26 27 28 29 30 31 32 33 34 35 36 37 38 39 40 41 42 43 44 45 46 47 48 49 50
415
ASUS43 KFSD 302010
RWRSD

WEATHER ROUNDUP FOR SOUTH DAKOTA
NATIONAL WEATHER SERVICE SIOUX FALLS SD
300 PM CDT FRI SEP 30 2016

NOTE: "FAIR" INDICATES FEW OR NO CLOUDS BELOW 12,000 FEET WITH NO
SIGNIFICANT WEATHER AND/OR OBSTRUCTIONS TO VISIBILITY.


SDZ001>005-009-010-012>017-302100-
NORTHWEST AND NORTH CENTRAL SOUTH DAKOTA

CITY           SKY/WX    TMP DP  RH WIND       PRES   REMARKS
BUFFALO          N/A     77  47  34 SE14G22   29.96F
FAITH            N/A     69  47  45 SE14G23   30.04F
MOBRIDGE       PTSUNNY   74  45  35 SE25G33   30.07F
$$

SDZ012>016-024>037-041>051-057-063-072>074-302100-
SOUTHWEST AND SOUTH CENTRAL SOUTH DAKOTA

CITY           SKY/WX    TMP DP  RH WIND       PRES   REMARKS
RAPID CTY ARPT PTSUNNY   71  49  45 SE8       30.04F
PIERRE         CLOUDY    71  47  42 SE23G31   30.09F
CUSTER         CLOUDY    67  46  47 VRB6      30.17F
ELLSWORTH AFB  CLOUDY    71  49  46 S8        30.03F
PHILIP         CLOUDY    75  47  36 SE22G29   30.04F
PINE RIDGE     SUNNY     79  46  31 SW10G22   30.08F
WINNER         FAIR      72  45  37 S16G25    30.15F
$$

SDZ004>011-016>023-039-040-302100-
NORTHEAST SOUTH DAKOTA

CITY           SKY/WX    TMP DP  RH WIND       PRES   REMARKS
ABERDEEN       PTSUNNY   72  43  35 S12       30.17F
WATERTOWN      SUNNY     70  46  42 S13G21    30.22F
BROOKINGS      MOSUNNY   69  46  43 SE13      30.22F
SISSETON         N/A     69  49  48 SE10G20   30.22F
$$

SDZ017-020-022-023-036>040-048>070-302100-
SOUTHEAST SOUTH DAKOTA

CITY           SKY/WX    TMP DP  RH WIND       PRES   REMARKS
SIOUX FALLS    PTSUNNY   74  48  39 E13       30.21F
HURON          MOSUNNY   69  46  43 S15       30.19F
CHAMBERLAIN    PTSUNNY   71  50  46 SE15G22   30.16F
MITCHELL       SUNNY     74  44  34 SE17G24   30.20F
YANKTON        SUNNY     72  46  40 SE9G17    30.19F
$$

ABBREVIATIONS USED IN REMARKS
   TC - TEMPERATURE IN CELSIUS
  WCI - WIND CHILL INDEX
   HX - HEAT INDEX
  VSB - VISIBILITY





USA.gov is the U.S. government's official web portal to all federal, state and local government web resources and services.